Location: Heidgraben
(53.7081°N, 9.6576°E)
Time: 21:03:43
(UTC+00:00)

Cosmos 2112 Rocket - Pass Details

Date: 05 July 2020
Orbit: 756 x 787 km, 74.1° (Epoch: 14 August)

Event Time Altitude Azimuth Distance (km) Brightness Sun altitude
Exits shadow 22:48:23 11° 210° (SSW) 2,269 6.0 -13.2°
Maximum altitude 22:53:32 79° 297° (WNW) 809 4.2 -13.3°
Drops below altitude 10° 22:58:56 10° 25° (NNE) 2,360 7.5 -13.4°
Sets 23:01:20 0° 27° (NNE) 3,292 8.3 -13.4°
